TimeEDT,TemperatureF,Dew PointF,Humidity,Sea Level PressureIn,VisibilityMPH,Wind Direction,Wind SpeedMPH,Gust SpeedMPH,PrecipitationIn,Events,Conditions,WindDirDegrees,DateUTC
12:53 AM,62.1,48.9,62,30.05,10.0,Calm,Calm,-,N/A,,Clear,0,2013-04-09 04:53:00
1:53 AM,57.9,50.0,75,30.06,10.0,Calm,Calm,-,N/A,,Clear,0,2013-04-09 05:53:00
2:53 AM,57.0,48.9,74,30.07,10.0,Calm,Calm,-,N/A,,Clear,0,2013-04-09 06:53:00
3:53 AM,55.9,48.9,77,30.07,10.0,Calm,Calm,-,N/A,,Clear,0,2013-04-09 07:53:00
4:53 AM,54.0,48.0,80,30.08,10.0,Calm,Calm,-,N/A,,Clear,0,2013-04-09 08:53:00
5:53 AM,53.1,48.0,83,30.10,10.0,Calm,Calm,-,N/A,,Clear,0,2013-04-09 09:53:00
6:53 AM,52.0,48.0,86,30.12,10.0,Calm,Calm,-,N/A,,Mostly Cloudy,0,2013-04-09 10:53:00
7:53 AM,54.0,48.9,83,30.16,10.0,Calm,Calm,-,N/A,,Overcast,0,2013-04-09 11:53:00
8:53 AM,57.9,50.0,75,30.16,10.0,Calm,Calm,-,N/A,,Mostly Cloudy,0,2013-04-09 12:53:00
9:53 AM,64.0,51.1,63,30.16,10.0,Calm,Calm,-,N/A,,Partly Cloudy,0,2013-04-09 13:53:00
10:53 AM,72.0,51.1,48,30.16,10.0,Calm,Calm,-,N/A,,Clear,0,2013-04-09 14:53:00
11:53 AM,75.9,52.0,43,30.16,10.0,Variable,4.6,27.6,N/A,,Partly Cloudy,0,2013-04-09 15:53:00
12:53 PM,77.0,54.0,45,30.15,10.0,SSW,9.2,17.3,N/A,,Scattered Clouds,200,2013-04-09 16:53:00
1:53 PM,78.1,54.0,43,30.14,10.0,SSW,8.1,-,N/A,,Scattered Clouds,210,2013-04-09 17:53:00
2:53 PM,79.0,53.1,40,30.11,10.0,SSW,11.5,19.6,N/A,,Scattered Clouds,200,2013-04-09 18:53:00
3:53 PM,81.0,54.0,39,30.08,10.0,Variable,6.9,17.3,N/A,,Scattered Clouds,0,2013-04-09 19:53:00
4:53 PM,80.1,53.1,39,30.06,10.0,SSW,9.2,19.6,N/A,,Clear,200,2013-04-09 20:53:00
5:53 PM,79.0,53.1,40,30.06,10.0,Variable,6.9,-,N/A,,Clear,0,2013-04-09 21:53:00
6:53 PM,78.1,52.0,40,30.04,10.0,SSW,5.8,-,N/A,,Clear,210,2013-04-09 22:53:00
7:53 PM,77.0,52.0,42,30.01,10.0,SSW,5.8,-,N/A,,Clear,200,2013-04-09 23:53:00
8:53 PM,72.0,54.0,53,30.03,10.0,SW,3.5,-,N/A,,Clear,220,2013-04-10 00:53:00
9:53 PM,71.1,53.1,53,30.06,10.0,WSW,3.5,-,N/A,,Clear,240,2013-04-10 01:53:00
10:53 PM,68.0,53.1,59,30.06,10.0,Calm,Calm,-,N/A,,Clear,0,2013-04-10 02:53:00
11:53 PM,66.0,54.0,65,30.06,10.0,SW,3.5,-,N/A,,Clear,220,2013-04-10 03:53:00